Regional Weather Roundup
Issued by NWS

Home | Current Version | Previous Version | Text Only | Print | Product List | Glossary On
Versions: 1 2 3 4 5 6 7 8 9 10 11 12 13 14 15 16 17 18 19 20 21 22 23 24 25 26 27 28 29 30 31 32 33 34 35 36 37 38 39 40 41 42 43 44 45 46 47 48 49 50
659
ASUS44 KLIX 201905
RWRLA
LOUISIANA WEATHER ROUNDUP
NATIONAL WEATHER SERVICE NEW ORLEANS LA
200 PM CDT MON OCT 20 2014

NOTE: "FAIR" INDICATES FEW OR NO CLOUDS BELOW 12,000 FEET WITH NO
      SIGNIFICANT WEATHER AND/OR OBSTRUCTIONS TO VISIBILITY.
      SKY/WX - SKY CONDITION AND SIGNIFICANT WEATHER.
      TMP - AIR TEMPERATURE.    DP   - DEWPOINT TEMPERATURE.
      RH  - RELATIVE HUMIDITY.  PRES - PRESSURE.
      HX  - HEAT INDEX.         WCI  - WIND CHILL INDEX.

*  THESE STATIONS ARE NOT NWS OR FAA STATIONS AND ARE NOT UNDER
   NWS QUALITY CONTROL.

LAZ040-048-061>063-065-066-069-202000-
SOUTHEAST LOUISIANA

CITY           SKY/WX    TMP DP  RH WIND       PRES   REMARKS
N.O. AUDUBON     N/A     81  61  50 MISG        N/A
N.O. INTL ARPT MOSUNNY   78  58  49 N9        30.01F
N.O. LAKEFRONT SUNNY     77  58  51 N9        30.02F
N.O. DOWNTOWN* FAIR      79  54  41 N5        30.02F
SLIDELL        SUNNY     79  53  40 NE7       30.01F
BATON ROUGE    MOSUNNY   76  52  43 NE6       30.03F
BOOTHVILLE     MOSUNNY   76  65  68 NE9       30.00F
BELLE CHASSE   PTSUNNY   79  58  48 CALM      30.00F
BOGALUSA*        N/A     77  45  32 CALM      30.04F
NEW ROADS*     FAIR      74  54  48 CALM      30.03F
GONZALES*      FAIR      78  54  43 CALM      30.01F
HAMMOND*       MOSUNNY   79  46  31 CALM      30.04F
HOUMA*         NOT AVBL
PORT FOURCHON* CLEAR     77  61  57 NE8       30.03F

$$

LAZ041-044-053-054-202000-
SOUTHWEST LOUISIANA

CITY           SKY/WX    TMP DP  RH WIND       PRES   REMARKS
LAKE CHARLES   SUNNY     79  57  46 VRB3      30.02F
LAFAYETTE      MOSUNNY   78  55  44 NE6       30.03F
PATTERSON        N/A    N/A N/A N/A N6        30.03
SALT POINT       N/A     81  59  47 VRB3      30.00F
NEW IBERIA     SUNNY     80  55  42 E7        30.03F
CHENAULT AIRPK MOSUNNY   77  59  53 VRB6      30.03F

$$

LAZ027-028-202000-
CENTRAL LOUISIANA

CITY           SKY/WX    TMP DP  RH WIND       PRES   REMARKS
FORT POLK      MOSUNNY   76  52  43 VRB5      30.03F
ALEXANDRIA INT SUNNY     77  49  37 N7        30.03F
ALEXANDRIA     SUNNY     77  50  38 CALM      30.05F

$$

LAZ001-002-202000-
NORTHWEST LOUISIANA

CITY           SKY/WX    TMP DP  RH WIND       PRES   REMARKS
SHREVEPORT     MOSUNNY   75  52  44 CALM      30.06F
BARKSDALE AFB  SUNNY     76  49  39 VRB6      30.06F
DTN SHREVEPORT SUNNY     75  51  43 VRB6      30.06F

$$

LAZ014-016-202000-
NORTHEAST LOUISIANA

CITY           SKY/WX    TMP DP  RH WIND       PRES   REMARKS
MONROE         SUNNY     73  51  46 NW6       30.06F
TALLULAH       MOSUNNY   74  50  42 N8        30.06F

$$




USA.gov is the U.S. government's official web portal to all federal, state and local government web resources and services.